User: anonymous   Login
Location: Unspecified
(0.0000°N, 0.0000°E)
Time: 05:28:54
(UTC+00:00)
Language:

NOAA 17 - Orbit

View from above orbital plane
View from above orbital plane
View from above satellite
View from above satellite

Ground track
Ground track

The orbit data is extracted from the following two-line orbital elements,

1 27453U 02032A   16211.54617730  .00000017  00000-0  24934-4 0  9996
2 27453  98.3867 183.4007 0012911  67.3963 292.8582 14.24953457732816
Epoch (UTC): 29 July 2016 13:06:29
Eccentricity: 0.0012911
inclination: 98.3867°
perigee height: 799 km
apogee height: 818 km
right ascension of ascending node: 183.4007°
argument of perigee: 67.3963°
revolutions per day: 14.24953457
mean anomaly at epoch: 292.8582°
orbit number at epoch: 73281

The dashed part of the orbit path shows where the satellite is in the earth's shadow,  

DLR